Weather in Yaltushkiv

Ukraine / Vinnytsia Region     48°59′32″N   27°30′01″E
temp.,
°C
wind,
m/s
gust,
m/s
humid.,
%
clouds,
%
prec.,
mm/h
press.,
hPa
HPBL,
m
12 august, fri
fri1200:00+16n479384 0.7 1019133
03:00+16n379124 1.1 1019143
06:00+16nnw3696100 0.4 1018143
09:00+19n4587100 0.8 1018251
12:00+18nnw5893100 0.2 1017247
15:00+19nne41092100 3.0 1018386
18:00+19n3491100 1.0 101798
21:00+18ene3695100 1.1 1017167
13 august, sat
sat1300:00+17n4893100 0.0 1016198
03:00+17n499457 0.1 1015236
06:00+16n489841 0.1 1014224
09:00+20ne468389 0.1 1013400
12:00+25ne456198 0.1 1012971
15:00+28ene464718 0.2 10101939
18:00+28ene354793 0.0 1009548
21:00+22ne3562100 0.1 100964
14 august, sun
sun1400:00+20ene51279100 0.8 1009275
03:00+18ne479248 1.3 1008118
06:00+18ene3895100 0.6 1008184
09:00+19n3589100 4.8 1009107
12:00+23ene6867100 0.0 1009520
15:00+22ne3769100 0.3 1009195
18:00+24ene4958100 0.1 1008424
21:00+20ene336789 0.1 100932
15 august, mon
mon1500:00+19e3667100 0.0 1009100
03:00+17ne337097 0.0 100944
06:00+18nne4978100 0.0 1008189
09:00+21ne4570100 0.0 1007360
12:00+26ene3447100 0.0 10061009
15:00+30ne253293 0.0 10052153
18:00+30sse2439100 0.0 1005309
21:00+23sse1155100 0.0 100515
16 august, tue
tue1600:00+21ese2262100 0.0 100615
03:00+20ssw1166100 0.0 100611
06:00+19wsw2267100 0.0 100615
09:00+22sw2263100 0.0 1007184
12:00+27w3348100 0.0 1007621
15:00+30sw1236100 0.0 10072253
18:00+26ene475196 0.2 1007603
21:00+20se598286 0.9 1010307